Home   Weather   Hefei   Past weeks

Flag for China Past Weather in Hefei, Anhui, China — Yesterday and Last 2 Weeks

Now
43 °F

Passing clouds.


Feels Like: 41 °F
Forecast: 36 / 53 °F
Wind: 3 mph from East

Location: Hefei Airport

Current Time: Jan 24, 2017 at 7:36:06 pm

Latest Report: Jan 24, 2017 at 7:00 pm


Visibility: N/A

Pressure: 30.51 "Hg

Humidity: 61%

Dew Point: 30 °F

Location of HefeiLocation

Past Weather in Hefei — Graph

°F

Hefei Temperature Yesterday

Maximum temperature yesterday: 48 °F (at 2:00 pm)
Minimum temperature yesterday: 30 °F (at 6:00 am)
Average temperature yesterday: 39 °F

High & Low Weather Summary for the Past Weeks

 TemperatureHumidityPressure
High52 °F (Jan 13, 2:00 pm)100% (Jan 14, 4:00 am)30.66 "Hg (Jan 14, 4:00 am)
Low23 °F (Jan 21, 5:00 am)28% (Jan 20, 1:00 pm)30.12 "Hg (Jan 12, 6:00 pm)
Average39 °F71%30.39 "Hg
* Reported Jan 9 6:00 pm — Jan 24 6:00 pm, Hefei, Weather by CustomWeather, © 2017

Note: Actual official high and low records may vary slightly from our data, if they occured in-between our weather recording intervals... More about our weather records

Advertising

Hefei Weather History for the Previous 24 Hours

Scroll right to see more
 ConditionsComfort  
Time TempWeatherWind HumidityBarometerVisibility
6:00 pm
Tue, Jan 24
45 °FClear.3 mph57%30.48 "Hg10 mi
5:00 pm46 °FSunny.8 mph53%30.45 "Hg10 mi
4:00 pm48 °FSunny.8 mph50%30.45 "Hg10 mi
3:00 pm50 °FPassing clouds.8 mph40%30.45 "HgN/A
2:00 pm50 °FPassing clouds.10 mph37%30.45 "HgN/A
1:00 pm48 °FSunny.8 mph43%30.48 "Hg10 mi
12:00 pm46 °FSunny.8 mph46%30.51 "Hg10 mi
11:00 am45 °FSunny.8 mph46%30.51 "Hg10 mi
10:00 am41 °FClear.8 mph57%30.51 "Hg5 mi
9:00 am37 °FClear.8 mph60%30.51 "Hg4 mi
8:00 am34 °FClear.8 mph70%30.48 "Hg4 mi
7:00 am32 °FClear.8 mph75%30.48 "Hg4 mi
6:00 am30 °FClear.8 mph80%30.48 "Hg5 mi
5:00 am32 °FClear.6 mph69%30.45 "Hg10 mi
4:00 am34 °FClear.6 mph60%30.45 "Hg10 mi
3:00 am34 °FClear.6 mph60%30.45 "Hg5 mi
2:00 am34 °FClear.6 mph60%30.48 "Hg5 mi
1:00 am34 °FClear.3 mph56%30.48 "Hg5 mi
12:00 am36 °FClear.3 mph56%30.48 "Hg5 mi
11:00 pm
Mon, Jan 23
37 °FClear.6 mph52%30.48 "Hg5 mi
10:00 pm37 °FClear.6 mph56%30.48 "Hg5 mi
9:00 pm37 °FClear.6 mph56%30.45 "Hg5 mi
8:00 pm39 °FClear.6 mph48%30.45 "Hg5 mi
7:00 pm41 °FClear.6 mph49%30.45 "Hg5 mi
Weather by CustomWeather, © 2017

See weather overviewHow to use our weather pages